Flag for Germany Weather past 2 weeks in Bruchsal, Baden-Württemberg, Germany

Now
66 °F

Passing clouds.


Feels Like: 66 °F
Forecast: 46 / 66 °F
Wind: 8 mph from West

Location: Baden Wurttemberg - Neuostheim

Current Time: Sep 4, 2015 at 6:39:54 PM

Latest Report: Sep 4, 2015 at 5:50 PM


Visibility: N/A

Pressure: 29.98 "Hg

Humidity: 37%

Dew point: 39 °F

Location of BruchsalLocation

Historic Weather in Bruchsal — Graph

°F

Bruchsal temperature yesterday

Maximum temperature yesterday: 72 °F (at 3:20 PM)
Minimum temperature yesterday: 57 °F (at 6:20 AM)
Average temperature yesterday: 66 °F

Past Weeks' High & Low Weather Summary

 TemperatureHumidityPressure
High93 °F (Aug 30, 4:50 PM)100% (Aug 21, 6:50 AM)30.27 "Hg (Aug 21, 6:50 AM)
Low50 °F (Sep 4, 6:20 AM)21% (Aug 31, 4:20 PM)29.68 "Hg (Aug 23, 4:50 PM)
Average72 °F57%29.98 "Hg
* Reported Aug 20 5:20 PM — Sep 4 5:20 PM, Bruchsal, Weather by CustomWeather, © 2015

Note: Actual official high and low records may vary slightly from our data, if they occured in-between our weather recording intervals... More about our weather records

Advertising

Bruchsal weather history for previous 24 hours

 ConditionsComfort  
Time TempWeatherWind HumidityBarometerVisibility
5:20 PM
Fri, Sep 4
68 °FPassing clouds.10 mph30%29.98 "HgN/A
4:50 PM66 °FPassing clouds.10 mph35%29.98 "HgN/A
4:20 PM66 °FSunny.13 mph35%29.98 "Hg10 mi
3:50 PM66 °FSunny.12 mph35%30.01 "Hg10 mi
3:20 PM66 °FPassing clouds.14 mph32%30.01 "HgN/A
2:50 PM66 °FPassing clouds.14 mph35%30.01 "HgN/A
2:20 PM66 °FPassing clouds.13 mph35%30.01 "HgN/A
1:50 PM66 °FPassing clouds.7 mph35%30.01 "HgN/A
1:20 PM68 °FPassing clouds.8 mph38%30.01 "HgN/A
12:50 PM64 °FPassing clouds.7 mph40%30.01 "HgN/A
12:20 PM64 °FSunny.5 mph40%30.04 "Hg10 mi
11:50 AM63 °FPassing clouds.7 mph45%30.04 "HgN/A
11:20 AM61 °FPassing clouds.5 mph55%30.04 "HgN/A
10:50 AM61 °FPassing clouds.6 mph59%30.04 "HgN/A
10:20 AM59 °FPassing clouds.5 mph63%30.04 "HgN/A
9:50 AM57 °FPassing clouds.6 mph67%30.04 "HgN/A
9:20 AM55 °FPassing clouds.6 mph72%30.01 "HgN/A
8:50 AM55 °FPassing clouds.5 mph77%30.01 "HgN/A
8:20 AM54 °FSunny.2 mph77%30.01 "Hg10 mi
7:50 AM54 °FSunny.2 mph77%30.01 "Hg10 mi
7:20 AM50 °FClear.5 mph88%30.01 "Hg10 mi
6:50 AM50 °FClear.5 mph82%30.01 "Hg10 mi
6:20 AM50 °FClear.5 mph82%30.01 "Hg10 mi
3:20 AM52 °FClear.2 mph77%30.01 "Hg10 mi
9:20 PM
Thu, Sep 3
66 °FClear.8 mph43%29.98 "Hg10 mi
8:50 PM66 °FSunny.9 mph43%29.95 "Hg10 mi
8:20 PM68 °FSunny.12 mph38%29.95 "Hg10 mi
7:50 PM68 °FSunny.10 mph38%29.95 "Hg10 mi
7:20 PM68 °FSunny.12 mph40%29.92 "Hg10 mi
6:50 PM70 °FPassing clouds.9 mph35%29.92 "HgN/A
6:20 PM72 °FPassing clouds.9 mph33%29.92 "HgN/A
Weather by CustomWeather, © 2015

See weather overviewHow to use our weather pages